#timestamp,LO_Frequency,Hit 
1500490815.3,286045595.6,N
1500490835.1,286045593.5,N
1500490855.9,286045596.3,N
1500490875.7,286045596.0,N
1500490895.6,286045595.8,N
1500490915.4,286045595.5,N
1500490935.2,286045594.9,N
1500490955.1,286045594.9,N
1500490956.0,286045594.9,N
1500490975.8,286045595.2,N
1500490995.6,286045596.2,N
1500491015.5,286045595.5,N
1500491035.3,286045595.8,N
1500491055.2,286045595.0,N
1500491075.9,286045595.2,N
1500491095.7,286045597.4,N
1500491115.6,286045597.6,N
1500491135.4,286045598.0,N
1500491155.2,286045597.6,N
1500491175.1,286045597.2,N
1500491176.0,286045597.2,N
1500491195.8,286045597.8,N
1500491215.7,286045597.7,N
1500491235.5,286045597.7,N
1500491255.3,286045595.6,N
1500491275.2,286045597.2,N
1500491295.0,286045597.7,N
1500491295.9,286045597.7,N
1500491315.7,286045599.6,N
1500491335.6,286045599.2,N
1500491355.4,286045599.1,N
1500491375.3,286045599.1,N
1500491395.1,286045596.7,N
1500491396.0,286045596.7,N
1500491415.8,286045596.7,N
1500491435.7,286045597.1,N
1500491455.5,286045599.0,N
1500491475.3,286045596.6,N
1500491495.2,286045596.6,N
1500491515.0,286045596.5,N
1500491515.9,286045596.5,N
1500491535.8,286045599.5,N
1500491555.6,286045597.0,N
1500491575.4,286045597.7,N
1500491595.3,286045597.3,N
1500491615.1,286045597.8,N
1500491635.8,286045597.7,N
1500491655.7,286045597.3,N
1500491675.5,286045596.6,N
1500491695.4,286045596.5,N
1500491715.2,286045597.8,N
1500491735.0,286045598.8,N
1500491735.9,286045598.8,N
1500491755.8,286045599.6,N
1500491775.6,286045596.9,N
1500491795.4,286045596.7,N
1500491815.3,286045596.7,N
1500491835.1,286045597.3,N
1500491855.9,286045597.4,N
1500491875.7,286045597.8,N
1500491895.5,286045597.2,N
1500491915.4,286045596.9,N
1500491935.2,286045596.9,N
1500491955.0,286045597.0,N
1500491956.0,286045597.0,N
1500491975.8,286045597.3,N
1500491995.6,286045596.5,N
1500492015.5,286045597.1,N
1500492035.3,286045596.9,N
1500492055.1,286045597.9,N
1500492075.9,286045597.1,N
1500492095.7,286045596.8,N
1500492115.6,286045597.2,N
1500492135.4,286045596.9,N
1500492155.2,286045599.6,N
1500492175.1,286045597.0,N
1500492176.0,286045597.0,N
1500492195.8,286045603.9,N
1500492215.6,286045597.1,N
1500492235.5,286045603.9,N
1500492255.3,286045597.1,N
1500492275.2,286045597.1,N
1500492295.0,286045597.1,N
1500492295.9,286045597.1,N
1500492315.7,286045596.6,N
1500492335.6,286045599.6,N
1500492355.4,286045599.2,N
1500492375.3,286045596.7,N
1500492395.1,286045596.5,N
1500492415.8,286045598.7,N
1500492435.7,286045599.2,N
1500492455.5,286045598.4,N
1500492475.4,286045599.2,N
1500492495.2,286045599.0,N
1500492515.0,286045599.1,N
1500492515.9,286045599.1,N
1500492535.8,286045599.5,N
1500492555.6,286045598.4,N
1500492575.4,286045599.3,N
1500492595.3,286045596.5,N
1500492615.1,286045597.0,N
1500492635.9,286045596.6,N
1500492655.7,286045599.5,N
1500492675.5,286045599.6,N
1500492695.4,286045599.1,N
1500492715.2,286045598.9,N
1500492735.0,286045599.4,N
1500492736.0,286045599.4,N
1500492755.8,286045599.2,N
1500492775.6,286045598.8,N
1500492795.5,286045599.6,N
1500492815.3,286045599.5,N
1500492835.1,286045596.7,N
1500492855.9,286045597.3,N
1500492875.7,286045597.0,N
1500492895.6,286045599.6,N
1500492915.4,286045599.5,N
1500492935.2,286045599.3,N
1500492955.1,286045598.8,N
1500492956.0,286045598.8,N
1500492975.8,286045598.4,N
1500492995.6,286045598.1,N
1500493015.5,286045600.7,N
1500493035.3,286045600.7,N
1500493055.2,286045598.3,N
1500493075.9,286045598.3,N
1500493095.7,286045598.5,N
1500493115.6,286045601.2,N
1500493135.4,286045601.2,N
1500493155.2,286045600.4,N
1500493175.1,286045599.1,N
1500493176.0,286045599.1,N
1500493195.8,286045598.5,N
1500493215.7,286045598.5,N
1500493235.5,286045600.2,N
1500493255.3,286045600.7,N
1500493275.2,286045598.1,N
1500493295.0,286045598.5,N
1500493295.9,286045598.5,N
1500493315.7,286045598.7,N
1500493335.6,286045598.4,N
1500493355.4,286045598.6,N
1500493375.3,286045600.9,N
1500493395.1,286045600.6,N
1500493415.8,286045598.8,N
1500493435.7,286045600.4,N
1500493455.5,286045601.1,N
1500493475.4,286045600.8,N
1500493495.2,286045600.3,N
1500493515.0,286045601.0,N
1500493515.9,286045601.0,N
1500493535.8,286045601.0,N
1500493555.6,286045602.8,N
1500493575.4,286045601.1,N
1500493595.3,286045602.4,N
1500493615.1,286045599.7,N
1500493635.9,286045600.5,N
1500493655.7,286045600.1,N
1500493675.5,286045599.8,N
1500493695.4,286045600.6,N
1500493715.2,286045602.6,N
1500493735.1,286045602.3,N
1500493736.0,286045602.3,N
1500493755.8,286045601.8,N
1500493775.6,286045602.3,N
1500493795.5,286045602.1,N
1500493815.3,286045602.4,N
1500493835.1,286045601.6,N
1500493855.9,286045602.2,N
1500493875.7,286045603.9,N
1500493895.6,286045601.3,N
1500493915.4,286045604.2,N
1500493935.2,286045602.1,N
1500493955.1,286045603.8,N
1500493956.0,286045603.8,N
1500493975.8,286045601.3,N
1500493995.6,286045603.6,N
1500494015.5,286045603.7,N
1500494035.3,286045601.7,N
1500494055.2,286045601.5,N
1500494075.9,286045601.7,N
1500494095.7,286045601.8,N
1500494115.6,286045601.4,N
1500494135.4,286045603.3,N
1500494155.2,286045603.4,N
1500494175.1,286045601.8,N
1500494176.0,286045601.8,N
1500494195.8,286045600.1,N
1500494215.7,286045602.1,N
1500494235.5,286045601.6,N
1500494255.3,286045602.2,N
1500494275.2,286045601.6,N
1500494295.0,286045602.5,N
1500494295.9,286045602.5,N
1500494315.7,286045602.4,N
1500494335.6,286045600.1,N
1500494355.4,286045600.3,N
1500494375.3,286045602.3,N
1500494395.1,286045602.5,N
1500494396.0,286045602.5,N
